QPF
0.00 0.00 0.00 0.00 0.00 0.00 0.00 0.00 0.00 0.00 0.00 0.00 0.00 0.00 0.00 0.00 0.00 0.00 0.00 0.00 0.00 0.00 0.00 0.00 0.00 0.00 0.00 0.00 0.00 0.00 0.00 0.00 0.00 0.01 0.01 0.01 0.01 0.00 0.00 0.00 0.00 0.00 0.00 0.00 0.00 0.00 0.00 0.00 0.00
0.00 0.00 0.00 0.00 0.00 0.00 0.00 0.00 0.00 0.00 0.00 0.00 0.00 0.00 0.00 0.00 0.00 0.00 0.00 0.00 0.00 0.00 0.00 0.00 0.00 0.00 0.00 0.00 0.00 0.00 0.00 0.00 0.00 0.01 0.01 0.00 0.00 0.00 0.00 0.00 0.00 0.00 0.00 0.00 0.00 0.00 0.00 0.00 0.00
0.00 0.00 0.00 0.00 0.00 0.00 0.00 0.00 0.00 0.00 0.00 0.00 0.00 0.00 0.00 0.00 0.00 0.00 0.00 0.00 0.00 0.00 0.00 0.00 0.00 0.00 0.00 0.00 0.00 0.00 0.00 0.00 0.00 0.00 0.00 0.00 0.00 0.00 0.00 0.00 0.00 0.00 0.00 0.00 0.00 0.00 0.00 0.00 0.00
0.00 0.00 0.00 0.00 0.00 0.00 0.00 0.00 0.00 0.00 0.00 0.00 0.00 0.00 0.00 0.00 0.00 0.00 0.00 0.00 0.00 0.00 0.00 0.00 0.00 0.00 0.00 0.00 0.00 0.00 0.00 0.00 0.00 0.00 0.00 0.00 0.00 0.00 0.00 0.00 0.00 0.00 0.00 0.00 0.00 0.00 0.00 0.00 0.00
0.00 0.00 0.00 0.00 0.00 0.00 0.00 0.00 0.00 0.00 0.00 0.00 0.00 0.00 0.00 0.00 0.00 0.00 0.00 0.00 0.00 0.00 0.00 0.00 0.00 0.00 0.00 0.00 0.00 0.00 0.00 0.00 0.00 0.00 0.00 0.00 0.00 0.00 0.00 0.00 0.00 0.00 0.00 0.00 0.00 0.00 0.00 0.00 0.00
0.00 0.00 0.00 0.00 0.00 0.00 0.00 0.00 0.00 0.00 0.00 0.00 0.00 0.00 0.00 0.00 0.00 0.00 0.00 0.00 0.00 0.00 0.00 0.00 0.00 0.00 0.00 0.00 0.01 0.00 0.00 0.00 0.00 0.00 0.00 0.00 0.00 0.00 0.00 0.00 0.00 0.00 0.00 0.00 0.00 0.00 0.00 0.00 0.00
0.00 0.00 0.00 0.00 0.00 0.00 0.00 0.00 0.00 0.00 0.00 0.00 0.00 0.00 0.00 0.00 0.00 0.00 0.00 0.00 0.00 0.00 0.00 0.00 0.00 0.00 0.00 0.00 0.01 0.01 0.01 0.00 0.00 0.00 0.00 0.00 0.00 0.00 0.00 0.00 0.00 0.00 0.00 0.00 0.00 0.00 0.00 0.00 0.00
0.00 0.00 0.00 0.00 0.00 0.00 0.00 0.00 0.00 0.00 0.00 0.00 0.00 0.00 0.00 0.00 0.00 0.00 0.00 0.00 0.00 0.00 0.00 0.00 0.00 0.00 0.00 0.00 0.01 0.01 0.01 0.00 0.00 0.00 0.00 0.00 0.00 0.00 0.00 0.00 0.00 0.00 0.00 0.00 0.00 0.00 0.00 0.00 0.00
0.00 0.00 0.00 0.00 0.00 0.00 0.00 0.00 0.00 0.00 0.00 0.00 0.00 0.00 0.00 0.00 0.00 0.00 0.00 0.00 0.00 0.00 0.00 0.00 0.00 0.00 0.00 0.00 0.00 0.01 0.01 0.01 0.00 0.00 0.00 0.00 0.00 0.00 0.00 0.00 0.00 0.00 0.00 0.00 0.00 0.00 0.00 0.00 0.00
0.00 0.00 0.00 0.00 0.00 0.00 0.00 0.00 0.00 0.00 0.00 0.00 0.00 0.00 0.00 0.00 0.00 0.00 0.00 0.00 0.00 0.00 0.00 0.00 0.00 0.00 0.00 0.00 0.00 0.00 0.00 0.00 0.00 0.00 0.00 0.00 0.00 0.00 0.00 0.00 0.00 0.00 0.00 0.00 0.00 0.00 0.00 0.00 0.00
0.00 0.00 0.00 0.00 0.00 0.00 0.00 0.00 0.00 0.00 0.00 0.00 0.00 0.00 0.00 0.00 0.00 0.00 0.00 0.00 0.00 0.00 0.00 0.00 0.00 0.00 0.00 0.00 0.00 0.00 0.00 0.00 0.00 0.00 0.00 0.00 0.00 0.00 0.00 0.00 0.00 0.00 0.00 0.00 0.00 0.00 0.00 0.00 0.00
0.00 0.00 0.00 0.00 0.00 0.00 0.00 0.00 0.00 0.00 0.00 0.00 0.00 0.00 0.00 0.00 0.00 0.00 0.00 0.00 0.00 0.00 0.00 0.00 0.00 0.00 0.00 0.00 0.00 0.00 0.00 0.00 0.00 0.00 0.00 0.00 0.00 0.00 0.00 0.00 0.00 0.00 0.00 0.00 0.00 0.00 0.00 0.00 0.00
0.00 0.00 0.00 0.00 0.00 0.00 0.00 0.00 0.00 0.00 0.00 0.00 0.00 0.00 0.00 0.00 0.00 0.00 0.00 0.00 0.00 0.00 0.00 0.00 0.00 0.00 0.00 0.00 0.00 0.00 0.00 0.00 0.00 0.00 0.00 0.00 0.00 0.00 0.00 0.00 0.00 0.00 0.00 0.00 0.00 0.00 0.00 0.00 0.00
0.00 0.00 0.00 0.00 0.00 0.00 0.00 0.00 0.00 0.00 0.00 0.00 0.00 0.00 0.00 0.00 0.00 0.00 0.00 0.00 0.00 0.00 0.00 0.00 0.00 0.00 0.00 0.00 0.00 0.00 0.00 0.00 0.00 0.00 0.00 0.00 0.00 0.00 0.00 0.00 0.00 0.00 0.00 0.00 0.00 0.00 0.00 0.00 0.00
0.00 0.00 0.00 0.00 0.00 0.00 0.00 0.00 0.00 0.00 0.00 0.00 0.00 0.00 0.00 0.00 0.00 0.00 0.00 0.00 0.00 0.00 0.00 0.00 0.00 0.00 0.00 0.00 0.00 0.00 0.00 0.00 0.00 0.00 0.00 0.00 0.00 0.00 0.00 0.00 0.00 0.00 0.00 0.00 0.00 0.00 0.00 0.00 0.00
0.00 0.00 0.00 0.00 0.00 0.00 0.00 0.00 0.00 0.00 0.00 0.00 0.00 0.00 0.00 0.00 0.00 0.00 0.00 0.00 0.00 0.00 0.00 0.00 0.00 0.00 0.00 0.00 0.00 0.00 0.00 0.00 0.00 0.00 0.00 0.00 0.00 0.00 0.00 0.00 0.00 0.00 0.00 0.00 0.00 0.00 0.00 0.00 0.00
0.00 0.00 0.00 0.00 0.00 0.00 0.00 0.00 0.00 0.00 0.00 0.00 0.00 0.00 0.00 0.00 0.00 0.00 0.00 0.00 0.00 0.00 0.00 0.00 0.00 0.00 0.00 0.00 0.00 0.00 0.00 0.00 0.00 0.00 0.00 0.00 0.00 0.00 0.00 0.00 0.00 0.00 0.00 0.00 0.00 0.00 0.00 0.00 0.00
0.00 0.00 0.00 0.00 0.00 0.00 0.00 0.00 0.00 0.00 0.00 0.00 0.00 0.00 0.00 0.00 0.00 0.00 0.00 0.00 0.00 0.00 0.00 0.00 0.00 0.00 0.00 0.00 0.00 0.00 0.00 0.00 0.00 0.00 0.00 0.00 0.00 0.00 0.00 0.00 0.00 0.00 0.00 0.00 0.00 0.00 0.00 0.00 0.00
0.00 0.00 0.00 0.00 0.00 0.00 0.00 0.00 0.00 0.00 0.00 0.00 0.00 0.00 0.00 0.00 0.00 0.00 0.00 0.00 0.00 0.00 0.00 0.00 0.00 0.00 0.00 0.00 0.00 0.00 0.00 0.00 0.00 0.00 0.00 0.00 0.00 0.00 0.00 0.00 0.00 0.00 0.00 0.00 0.00 0.00 0.00 0.00 0.00
0.00 0.00 0.00 0.00 0.00 0.00 0.00 0.00 0.00 0.00 0.00 0.00 0.00 0.00 0.00 0.00 0.00 0.00 0.00 0.00 0.00 0.00 0.00 0.00 0.00 0.00 0.00 0.00 0.00 0.00 0.00 0.00 0.00 0.00 0.00 0.00 0.00 0.00 0.00 0.00 0.00 0.00 0.00 0.00 0.00 0.00 0.00 0.00 0.00
0.00 0.00 0.00 0.00 0.00 0.00 0.00 0.00 0.00 0.00 0.00 0.00 0.00 0.00 0.00 0.00 0.00 0.00 0.00 0.00 0.00 0.00 0.00 0.00 0.00 0.00 0.00 0.00 0.00 0.00 0.00 0.00 0.00 0.00 0.00 0.00 0.00 0.00 0.00 0.00 0.00 0.00 0.00 0.00 0.00 0.00 0.00 0.00 0.00
0.00 0.00 0.00 0.00 0.00 0.00 0.00 0.00 0.00 0.00 0.00 0.00 0.00 0.00 0.00 0.00 0.00 0.00 0.00 0.00 0.00 0.00 0.00 0.00 0.00 0.00 0.00 0.00 0.00 0.00 0.00 0.00 0.00 0.00 0.00 0.00 0.00 0.00 0.00 0.00 0.00 0.00 0.00 0.00 0.00 0.00 0.00 0.00 0.00
0.00 0.00 0.00 0.00 0.00 0.00 0.00 0.00 0.00 0.00 0.00 0.00 0.00 0.00 0.00 0.00 0.00 0.00 0.00 0.00 0.00 0.00 0.00 0.00 0.00 0.00 0.00 0.00 0.00 0.00 0.00 0.00 0.00 0.00 0.00 0.00 0.00 0.00 0.00 0.00 0.00 0.00 0.00 0.00 0.00 0.00 0.00 0.00 0.00
0.00 0.00 0.00 0.00 0.00 0.00 0.00 0.00 0.00 0.00 0.00 0.00 0.00 0.00 0.00 0.00 0.00 0.00 0.00 0.00 0.00 0.00 0.00 0.00 0.00 0.00 0.00 0.00 0.00 0.00 0.00 0.00 0.00 0.00 0.00 0.00 0.00 0.00 0.00 0.00 0.00 0.00 0.00 0.00 0.00 0.00 0.00 0.00 0.00
0.00 0.00 0.00 0.00 0.00 0.00 0.00 0.00 0.00 0.00 0.00 0.00 0.00 0.00 0.00 0.00 0.00 0.00 0.00 0.00 0.00 0.00 0.00 0.00 0.00 0.00 0.00 0.00 0.00 0.00 0.00 0.00 0.00 0.00 0.00 0.00 0.00 0.00 0.00 0.00 0.00 0.00 0.00 0.00 0.00 0.00 0.00 0.00 0.00
0.00 0.00 0.00 0.00 0.00 0.00 0.00 0.00 0.00 0.00 0.00 0.00 0.00 0.00 0.00 0.00 0.00 0.00 0.00 0.00 0.00 0.00 0.00 0.00 0.00 0.00 0.00 0.00 0.00 0.00 0.00 0.00 0.00 0.00 0.00 0.00 0.00 0.00 0.00 0.00 0.00 0.00 0.00 0.00 0.00 0.00 0.00 0.00 0.00
0.00 0.00 0.00 0.00 0.00 0.00 0.00 0.00 0.00 0.00 0.00 0.00 0.00 0.00 0.00 0.00 0.00 0.00 0.00 0.00 0.00 0.00 0.00 0.00 0.00 0.00 0.00 0.00 0.00 0.00 0.00 0.00 0.00 0.00 0.00 0.00 0.00 0.00 0.00 0.00 0.00 0.00 0.00 0.00 0.00 0.00 0.00 0.00 0.00
0.00 0.00 0.00 0.00 0.00 0.00 0.00 0.00 0.00 0.00 0.00 0.00 0.00 0.00 0.00 0.00 0.00 0.00 0.00 0.00 0.00 0.00 0.00 0.00 0.00 0.00 0.00 0.00 0.00 0.00 0.00 0.00 0.00 0.00 0.00 0.00 0.00 0.00 0.00 0.00 0.00 0.00 0.00 0.00 0.00 0.00 0.00 0.00 0.00
0.00 0.00 0.00 0.00 0.00 0.00 0.00 0.00 0.00 0.00 0.00 0.00 0.00 0.00 0.00 0.00 0.00 0.00 0.00 0.00 0.00 0.00 0.00 0.00 0.00 0.00 0.00 0.00 0.00 0.00 0.00 0.00 0.00 0.00 0.00 0.00 0.00 0.00 0.00 0.00 0.00 0.00 0.00 0.00 0.00 0.00 0.00 0.00 0.00
0.00 0.00 0.00 0.00 0.00 0.00 0.00 0.00 0.00 0.00 0.00 0.00 0.00 0.00 0.00 0.00 0.00 0.00 0.00 0.00 0.00 0.00 0.00 0.00 0.00 0.00 0.00 0.00 0.00 0.00 0.00 0.00 0.00 0.00 0.00 0.00 0.00 0.00 0.00 0.00 0.00 0.00 0.00 0.00 0.00 0.00 0.00 0.00 0.00
MSLP
1016.28 1016.69 1017.24 1017.85 1018.44 1018.94 1019.28 1019.46 1019.46 1019.34 1019.14 1018.91 1018.68 1018.48 1018.31 1018.16 1018.02 1017.89 1017.79 1017.74 1017.78 1017.94 1018.23 1018.65 1019.18 1019.77 1020.36 1020.89 1021.33 1021.66 1021.89 1022.05 1022.16 1022.29 1022.44 1022.62 1022.84 1023.06 1023.27 1023.43 1023.55 1023.61 1023.63 1023.61 1023.59 1023.56 1023.53 1023.50 1023.45
1016.40 1016.92 1017.55 1018.21 1018.79 1019.23 1019.47 1019.50 1019.35 1019.07 1018.73 1018.40 1018.11 1017.90 1017.75 1017.65 1017.58 1017.52 1017.49 1017.49 1017.57 1017.75 1018.05 1018.49 1019.03 1019.64 1020.25 1020.82 1021.31 1021.69 1021.97 1022.18 1022.35 1022.51 1022.68 1022.89 1023.11 1023.34 1023.54 1023.71 1023.83 1023.90 1023.94 1023.95 1023.96 1023.97 1023.97 1023.97 1023.94
1016.59 1017.18 1017.85 1018.49 1019.03 1019.37 1019.49 1019.39 1019.10 1018.70 1018.26 1017.86 1017.55 1017.34 1017.23 1017.20 1017.20 1017.23 1017.27 1017.33 1017.46 1017.67 1017.99 1018.43 1018.97 1019.58 1020.19 1020.77 1021.28 1021.69 1022.01 1022.26 1022.47 1022.67 1022.88 1023.11 1023.34 1023.56 1023.76 1023.92 1024.03 1024.11 1024.16 1024.20 1024.24 1024.28 1024.32 1024.35 1024.35
1016.85 1017.47 1018.12 1018.71 1019.16 1019.39 1019.40 1019.18 1018.78 1018.30 1017.81 1017.38 1017.07 1016.90 1016.84 1016.87 1016.95 1017.05 1017.16 1017.29 1017.46 1017.70 1018.04 1018.47 1019.00 1019.59 1020.18 1020.75 1021.24 1021.66 1022.00 1022.28 1022.53 1022.76 1023.00 1023.25 1023.49 1023.72 1023.91 1024.06 1024.17 1024.24 1024.30 1024.37 1024.44 1024.52 1024.60 1024.67 1024.69
1017.17 1017.77 1018.37 1018.87 1019.21 1019.34 1019.23 1018.93 1018.47 1017.95 1017.45 1017.04 1016.76 1016.63 1016.62 1016.71 1016.84 1017.00 1017.16 1017.33 1017.54 1017.80 1018.15 1018.58 1019.08 1019.63 1020.19 1020.72 1021.19 1021.59 1021.93 1022.23 1022.50 1022.77 1023.04 1023.31 1023.57 1023.81 1024.00 1024.15 1024.26 1024.34 1024.41 1024.49 1024.59 1024.71 1024.82 1024.92 1024.98
1017.53 1018.08 1018.59 1018.99 1019.22 1019.24 1019.06 1018.70 1018.22 1017.71 1017.24 1016.87 1016.64 1016.55 1016.58 1016.70 1016.86 1017.05 1017.23 1017.43 1017.65 1017.93 1018.27 1018.69 1019.16 1019.68 1020.19 1020.67 1021.10 1021.48 1021.81 1022.11 1022.40 1022.69 1023.00 1023.30 1023.59 1023.84 1024.05 1024.21 1024.32 1024.41 1024.49 1024.59 1024.71 1024.85 1025.00 1025.12 1025.21
1017.88 1018.37 1018.78 1019.08 1019.20 1019.15 1018.91 1018.53 1018.07 1017.60 1017.19 1016.87 1016.69 1016.63 1016.68 1016.80 1016.96 1017.14 1017.32 1017.52 1017.74 1018.02 1018.36 1018.76 1019.21 1019.68 1020.15 1020.59 1020.98 1021.33 1021.64 1021.94 1022.25 1022.57 1022.90 1023.24 1023.55 1023.83 1024.06 1024.23 1024.36 1024.46 1024.55 1024.67 1024.80 1024.96 1025.12 1025.26 1025.36
1018.19 1018.60 1018.92 1019.12 1019.16 1019.05 1018.79 1018.43 1018.02 1017.61 1017.26 1017.00 1016.86 1016.82 1016.86 1016.95 1017.08 1017.22 1017.37 1017.54 1017.75 1018.02 1018.35 1018.74 1019.18 1019.63 1020.07 1020.47 1020.84 1021.16 1021.46 1021.76 1022.08 1022.42 1022.77 1023.13 1023.48 1023.78 1024.02 1024.21 1024.35 1024.47 1024.57 1024.69 1024.84 1025.00 1025.16 1025.30 1025.40
1018.41 1018.75 1018.99 1019.11 1019.09 1018.95 1018.70 1018.38 1018.03 1017.69 1017.41 1017.20 1017.08 1017.03 1017.04 1017.08 1017.15 1017.23 1017.33 1017.47 1017.66 1017.92 1018.25 1018.64 1019.08 1019.52 1019.95 1020.34 1020.68 1021.00 1021.29 1021.59 1021.91 1022.26 1022.63 1023.01 1023.37 1023.68 1023.94 1024.14 1024.29 1024.42 1024.53 1024.65 1024.79 1024.95 1025.10 1025.23 1025.33
1018.54 1018.82 1018.98 1019.04 1018.99 1018.84 1018.62 1018.35 1018.06 1017.80 1017.57 1017.40 1017.28 1017.20 1017.16 1017.14 1017.14 1017.15 1017.20 1017.30 1017.48 1017.73 1018.07 1018.47 1018.92 1019.37 1019.80 1020.19 1020.54 1020.85 1021.15 1021.45 1021.77 1022.12 1022.50 1022.88 1023.23 1023.55 1023.81 1024.01 1024.16 1024.29 1024.40 1024.52 1024.65 1024.79 1024.92 1025.04 1025.12
1018.60 1018.81 1018.92 1018.93 1018.86 1018.72 1018.53 1018.31 1018.09 1017.88 1017.70 1017.55 1017.42 1017.31 1017.22 1017.13 1017.05 1017.00 1017.00 1017.08 1017.24 1017.49 1017.84 1018.26 1018.73 1019.20 1019.65 1020.06 1020.42 1020.74 1021.04 1021.34 1021.66 1022.00 1022.36 1022.73 1023.07 1023.37 1023.62 1023.81 1023.96 1024.08 1024.18 1024.28 1024.40 1024.52 1024.63 1024.72 1024.78
1018.61 1018.76 1018.81 1018.79 1018.71 1018.58 1018.43 1018.26 1018.09 1017.93 1017.78 1017.64 1017.49 1017.35 1017.20 1017.06 1016.92 1016.82 1016.79 1016.84 1016.99 1017.25 1017.62 1018.06 1018.55 1019.04 1019.51 1019.94 1020.31 1020.65 1020.95 1021.25 1021.56 1021.89 1022.23 1022.56 1022.88 1023.15 1023.38 1023.55 1023.68 1023.79 1023.88 1023.97 1024.06 1024.16 1024.25 1024.31 1024.35
1018.62 1018.70 1018.71 1018.66 1018.57 1018.46 1018.34 1018.21 1018.08 1017.96 1017.82 1017.68 1017.52 1017.35 1017.17 1016.98 1016.81 1016.68 1016.62 1016.66 1016.81 1017.07 1017.45 1017.90 1018.40 1018.91 1019.40 1019.84 1020.22 1020.56 1020.87 1021.16 1021.46 1021.76 1022.07 1022.37 1022.65 1022.89 1023.09 1023.24 1023.35 1023.44 1023.52 1023.59 1023.67 1023.74 1023.80 1023.84 1023.84
1018.67 1018.69 1018.65 1018.58 1018.48 1018.39 1018.29 1018.19 1018.09 1017.99 1017.86 1017.72 1017.56 1017.37 1017.17 1016.96 1016.77 1016.63 1016.56 1016.59 1016.74 1017.01 1017.38 1017.83 1018.33 1018.83 1019.32 1019.76 1020.14 1020.48 1020.77 1021.05 1021.32 1021.60 1021.88 1022.14 1022.39 1022.60 1022.77 1022.90 1022.99 1023.07 1023.13 1023.19 1023.25 1023.30 1023.33 1023.33 1023.29
1018.77 1018.74 1018.67 1018.57 1018.48 1018.38 1018.30 1018.22 1018.15 1018.05 1017.95 1017.81 1017.65 1017.46 1017.25 1017.05 1016.86 1016.72 1016.65 1016.68 1016.82 1017.07 1017.42 1017.85 1018.32 1018.81 1019.27 1019.69 1020.06 1020.37 1020.65 1020.91 1021.16 1021.40 1021.64 1021.87 1022.09 1022.27 1022.42 1022.53 1022.62 1022.68 1022.74 1022.79 1022.83 1022.86 1022.86 1022.82 1022.74
1018.91 1018.85 1018.75 1018.65 1018.55 1018.47 1018.40 1018.33 1018.26 1018.19 1018.09 1017.96 1017.81 1017.64 1017.45 1017.26 1017.09 1016.97 1016.90 1016.92 1017.05 1017.27 1017.58 1017.97 1018.40 1018.84 1019.26 1019.64 1019.97 1020.26 1020.51 1020.73 1020.95 1021.16 1021.36 1021.57 1021.76 1021.92 1022.05 1022.16 1022.24 1022.30 1022.36 1022.40 1022.43 1022.44 1022.41 1022.33 1022.20
1019.06 1018.99 1018.88 1018.78 1018.69 1018.62 1018.56 1018.50 1018.44 1018.37 1018.28 1018.18 1018.05 1017.91 1017.76 1017.60 1017.46 1017.35 1017.29 1017.30 1017.40 1017.58 1017.85 1018.17 1018.54 1018.92 1019.28 1019.61 1019.90 1020.14 1020.35 1020.54 1020.71 1020.89 1021.06 1021.24 1021.40 1021.55 1021.68 1021.78 1021.86 1021.92 1021.98 1022.02 1022.04 1022.03 1021.97 1021.86 1021.68
1019.19 1019.12 1019.03 1018.95 1018.87 1018.81 1018.75 1018.69 1018.64 1018.58 1018.50 1018.42 1018.33 1018.23 1018.12 1018.01 1017.91 1017.82 1017.77 1017.77 1017.84 1017.97 1018.18 1018.44 1018.74 1019.05 1019.35 1019.62 1019.85 1020.04 1020.21 1020.35 1020.48 1020.61 1020.75 1020.90 1021.04 1021.17 1021.28 1021.38 1021.46 1021.53 1021.59 1021.62 1021.64 1021.62 1021.55 1021.40 1021.19
1019.25 1019.21 1019.16 1019.10 1019.04 1018.98 1018.92 1018.87 1018.80 1018.75 1018.69 1018.64 1018.59 1018.54 1018.49 1018.44 1018.38 1018.32 1018.28 1018.28 1018.31 1018.40 1018.55 1018.74 1018.97 1019.21 1019.45 1019.66 1019.84 1019.99 1020.10 1020.19 1020.28 1020.36 1020.46 1020.56 1020.68 1020.78 1020.88 1020.97 1021.05 1021.11 1021.16 1021.20 1021.21 1021.19 1021.10 1020.95 1020.71
1019.25 1019.25 1019.23 1019.20 1019.16 1019.10 1019.03 1018.96 1018.88 1018.82 1018.78 1018.76 1018.76 1018.78 1018.80 1018.81 1018.81 1018.79 1018.77 1018.76 1018.77 1018.82 1018.91 1019.05 1019.22 1019.40 1019.59 1019.75 1019.89 1019.98 1020.05 1020.09 1020.13 1020.16 1020.21 1020.27 1020.34 1020.41 1020.49 1020.55 1020.61 1020.67 1020.71 1020.73 1020.74 1020.71 1020.62 1020.47 1020.22
1019.18 1019.22 1019.24 1019.23 1019.19 1019.12 1019.02 1018.92 1018.82 1018.75 1018.72 1018.74 1018.80 1018.88 1018.98 1019.07 1019.13 1019.17 1019.18 1019.17 1019.17 1019.19 1019.24 1019.34 1019.46 1019.60 1019.75 1019.88 1019.97 1020.04 1020.06 1020.06 1020.05 1020.03 1020.02 1020.03 1020.05 1020.08 1020.11 1020.14 1020.17 1020.19 1020.20 1020.21 1020.20 1020.17 1020.09 1019.94 1019.71
1019.06 1019.15 1019.20 1019.20 1019.14 1019.03 1018.89 1018.74 1018.61 1018.52 1018.50 1018.54 1018.66 1018.82 1019.00 1019.18 1019.32 1019.42 1019.47 1019.49 1019.49 1019.49 1019.52 1019.58 1019.67 1019.79 1019.91 1020.01 1020.09 1020.13 1020.13 1020.09 1020.03 1019.97 1019.91 1019.86 1019.82 1019.79 1019.77 1019.75 1019.73 1019.71 1019.68 1019.65 1019.62 1019.57 1019.48 1019.35 1019.14
1018.94 1019.06 1019.12 1019.10 1019.01 1018.85 1018.65 1018.44 1018.25 1018.14 1018.12 1018.19 1018.36 1018.60 1018.87 1019.14 1019.37 1019.54 1019.64 1019.69 1019.70 1019.70 1019.72 1019.76 1019.83 1019.93 1020.04 1020.14 1020.21 1020.24 1020.22 1020.16 1020.07 1019.97 1019.86 1019.75 1019.66 1019.57 1019.49 1019.40 1019.32 1019.24 1019.15 1019.07 1018.99 1018.91 1018.81 1018.68 1018.49
1018.83 1018.96 1019.01 1018.97 1018.83 1018.60 1018.32 1018.04 1017.80 1017.65 1017.62 1017.72 1017.95 1018.26 1018.62 1018.98 1019.30 1019.54 1019.70 1019.79 1019.82 1019.83 1019.84 1019.87 1019.94 1020.03 1020.14 1020.24 1020.32 1020.35 1020.32 1020.25 1020.14 1020.00 1019.85 1019.70 1019.55 1019.40 1019.26 1019.11 1018.96 1018.80 1018.64 1018.49 1018.34 1018.21 1018.08 1017.93 1017.76
1018.72 1018.86 1018.89 1018.81 1018.61 1018.31 1017.96 1017.60 1017.30 1017.11 1017.08 1017.20 1017.47 1017.85 1018.29 1018.74 1019.14 1019.45 1019.67 1019.80 1019.85 1019.87 1019.88 1019.92 1019.98 1020.08 1020.19 1020.30 1020.39 1020.42 1020.41 1020.33 1020.21 1020.04 1019.86 1019.67 1019.47 1019.27 1019.07 1018.85 1018.63 1018.40 1018.16 1017.92 1017.70 1017.49 1017.31 1017.13 1016.94
1018.60 1018.74 1018.75 1018.63 1018.37 1018.01 1017.58 1017.16 1016.81 1016.59 1016.54 1016.68 1016.99 1017.42 1017.93 1018.45 1018.92 1019.30 1019.57 1019.74 1019.83 1019.86 1019.88 1019.92 1019.98 1020.08 1020.20 1020.32 1020.41 1020.46 1020.45 1020.37 1020.24 1020.06 1019.85 1019.62 1019.39 1019.14 1018.89 1018.62 1018.33 1018.03 1017.71 1017.39 1017.08 1016.79 1016.52 1016.29 1016.07
1018.44 1018.58 1018.58 1018.43 1018.12 1017.71 1017.23 1016.76 1016.37 1016.12 1016.07 1016.22 1016.55 1017.03 1017.59 1018.16 1018.69 1019.12 1019.44 1019.65 1019.76 1019.82 1019.85 1019.89 1019.96 1020.06 1020.19 1020.31 1020.41 1020.46 1020.44 1020.36 1020.21 1020.02 1019.78 1019.53 1019.26 1018.97 1018.68 1018.37 1018.03 1017.67 1017.28 1016.88 1016.49 1016.11 1015.76 1015.45 1015.17
1018.20 1018.35 1018.35 1018.18 1017.86 1017.41 1016.90 1016.40 1016.00 1015.74 1015.68 1015.84 1016.19 1016.69 1017.29 1017.90 1018.47 1018.95 1019.31 1019.55 1019.70 1019.77 1019.82 1019.87 1019.95 1020.05 1020.17 1020.29 1020.38 1020.42 1020.39 1020.29 1020.12 1019.90 1019.63 1019.34 1019.04 1018.73 1018.40 1018.06 1017.69 1017.29 1016.85 1016.40 1015.93 1015.48 1015.05 1014.66 1014.31
1017.89 1018.05 1018.05 1017.88 1017.55 1017.10 1016.59 1016.09 1015.69 1015.44 1015.39 1015.56 1015.92 1016.44 1017.05 1017.69 1018.28 1018.80 1019.19 1019.47 1019.64 1019.75 1019.82 1019.88 1019.96 1020.06 1020.17 1020.27 1020.34 1020.36 1020.30 1020.16 1019.96 1019.69 1019.38 1019.05 1018.72 1018.37 1018.02 1017.66 1017.28 1016.86 1016.40 1015.92 1015.41 1014.90 1014.40 1013.94 1013.52
1017.52 1017.68 1017.67 1017.50 1017.19 1016.75 1016.27 1015.80 1015.42 1015.20 1015.17 1015.35 1015.73 1016.26 1016.88 1017.53 1018.15 1018.68 1019.11 1019.42 1019.63 1019.77 1019.86 1019.94 1020.02 1020.11 1020.20 1020.28 1020.31 1020.28 1020.18 1019.99 1019.73 1019.41 1019.05 1018.67 1018.29 1017.91 1017.54 1017.17 1016.78 1016.36 1015.91 1015.42 1014.89 1014.35 1013.81 1013.30 1012.82
Thickness
5732 5734 5737 5733 5721 5710 5704 5711 5717 5718 5722 5728 5727 5726 5725 5724 5720 5718 5733 5734 5732 5728 5723 5716 5712 5708 5704 5701 5698 5696 5693 5691 5690 5688 5686 5684 5682 5681 5679 5678 5677 5676 5675 5675 5674 5674 5674 5674 5673
5735 5737 5735 5729 5712 5700 5703 5714 5715 5719 5726 5727 5727 5726 5726 5729 5735 5737 5736 5731 5729 5726 5721 5717 5711 5706 5703 5699 5696 5694 5691 5689 5687 5684 5682 5680 5678 5676 5675 5673 5672 5671 5670 5669 5669 5669 5668 5668 5668
5737 5738 5732 5723 5710 5705 5707 5716 5720 5724 5726 5726 5727 5729 5729 5732 5736 5737 5734 5730 5727 5724 5720 5716 5710 5705 5701 5698 5695 5692 5689 5686 5684 5681 5679 5677 5675 5673 5671 5669 5667 5666 5665 5664 5664 5663 5663 5663 5662
5738 5734 5730 5719 5709 5714 5717 5722 5723 5723 5725 5726 5727 5728 5733 5738 5738 5735 5731 5728 5726 5723 5718 5714 5708 5704 5700 5696 5693 5689 5686 5683 5681 5678 5675 5673 5671 5669 5667 5665 5663 5661 5660 5659 5659 5658 5658 5658 5657
5737 5732 5718 5710 5710 5717 5723 5724 5723 5722 5724 5726 5725 5726 5732 5737 5734 5732 5729 5727 5725 5722 5717 5712 5706 5702 5697 5694 5690 5687 5683 5680 5678 5675 5672 5670 5668 5665 5663 5661 5659 5657 5656 5655 5654 5653 5653 5653 5652
5731 5728 5712 5706 5711 5717 5723 5725 5722 5722 5724 5725 5724 5725 5733 5734 5732 5729 5727 5724 5723 5719 5714 5710 5704 5699 5695 5691 5688 5684 5681 5677 5675 5672 5669 5667 5664 5662 5659 5657 5655 5653 5652 5651 5650 5649 5648 5648 5647
5726 5720 5711 5709 5709 5713 5721 5725 5723 5722 5722 5726 5727 5723 5733 5734 5727 5724 5724 5722 5719 5716 5711 5708 5702 5697 5692 5689 5685 5681 5678 5674 5672 5669 5666 5664 5661 5659 5656 5654 5652 5650 5648 5647 5646 5645 5644 5643 5643
5730 5721 5709 5709 5707 5711 5721 5722 5723 5722 5724 5729 5727 5723 5727 5728 5721 5720 5719 5717 5715 5712 5709 5705 5701 5696 5691 5686 5682 5678 5675 5671 5668 5666 5663 5660 5657 5655 5653 5651 5648 5646 5645 5643 5642 5641 5640 5639 5638
5726 5713 5706 5708 5708 5713 5719 5718 5723 5725 5725 5725 5727 5728 5726 5719 5717 5716 5715 5713 5710 5707 5705 5703 5700 5695 5690 5685 5680 5675 5671 5668 5665 5662 5659 5656 5654 5653 5650 5648 5645 5643 5641 5640 5638 5637 5636 5635 5635
5718 5706 5709 5715 5717 5716 5716 5715 5719 5719 5719 5722 5725 5726 5721 5717 5715 5715 5715 5714 5710 5706 5703 5700 5696 5692 5687 5682 5677 5673 5669 5665 5662 5660 5657 5654 5651 5649 5647 5644 5641 5639 5638 5636 5635 5634 5633 5632 5633
5713 5708 5712 5713 5715 5713 5711 5713 5716 5713 5714 5719 5717 5720 5720 5716 5715 5714 5715 5715 5711 5707 5701 5697 5692 5688 5683 5679 5674 5671 5667 5663 5660 5657 5654 5650 5647 5644 5642 5640 5638 5636 5634 5633 5632 5630 5630 5630 5629
5707 5709 5708 5711 5709 5707 5708 5710 5711 5710 5714 5715 5713 5713 5714 5715 5715 5714 5713 5712 5708 5703 5699 5694 5689 5684 5680 5676 5672 5668 5664 5660 5657 5653 5649 5646 5643 5640 5638 5636 5635 5633 5631 5630 5628 5627 5627 5626 5625
5701 5703 5704 5705 5703 5704 5703 5704 5705 5709 5711 5710 5709 5708 5709 5711 5712 5713 5711 5709 5705 5700 5695 5691 5686 5681 5676 5672 5668 5665 5661 5658 5654 5649 5646 5643 5640 5637 5635 5633 5631 5629 5627 5626 5624 5624 5623 5622 5621
5698 5698 5701 5703 5702 5700 5698 5701 5699 5705 5704 5704 5704 5704 5706 5706 5706 5707 5706 5704 5702 5697 5692 5688 5683 5678 5673 5669 5665 5661 5658 5654 5650 5647 5643 5639 5637 5634 5631 5629 5627 5625 5623 5622 5620 5619 5618 5617 5616
5692 5691 5699 5699 5698 5698 5694 5696 5698 5700 5700 5700 5700 5700 5699 5699 5700 5700 5700 5699 5698 5694 5689 5684 5679 5675 5670 5666 5661 5657 5654 5650 5647 5643 5639 5636 5633 5630 5628 5625 5623 5620 5618 5617 5615 5614 5612 5612 5611
5688 5686 5688 5693 5693 5691 5688 5691 5695 5694 5694 5694 5694 5694 5693 5693 5694 5693 5694 5693 5692 5689 5684 5679 5673 5670 5666 5661 5657 5653 5649 5646 5642 5639 5636 5632 5629 5626 5623 5621 5619 5616 5614 5611 5609 5608 5607 5606 5605
5682 5682 5683 5687 5687 5687 5686 5687 5691 5689 5688 5688 5688 5688 5687 5686 5686 5685 5686 5686 5684 5682 5678 5673 5668 5664 5660 5656 5651 5647 5644 5640 5637 5634 5631 5627 5624 5621 5618 5616 5614 5611 5608 5605 5603 5602 5601 5601 5600
5677 5678 5676 5679 5683 5679 5679 5683 5686 5683 5682 5683 5682 5681 5679 5677 5675 5676 5677 5676 5675 5673 5670 5666 5662 5658 5654 5649 5645 5641 5637 5633 5631 5628 5625 5622 5619 5616 5613 5611 5609 5606 5603 5600 5597 5596 5594 5593 5592
5673 5671 5672 5676 5675 5670 5675 5677 5679 5676 5677 5677 5676 5674 5672 5669 5668 5668 5669 5669 5667 5664 5661 5658 5655 5651 5646 5642 5638 5634 5631 5628 5625 5622 5620 5617 5614 5611 5608 5605 5603 5600 5598 5596 5593 5590 5588 5585 5582
5664 5664 5669 5672 5666 5666 5669 5671 5672 5671 5671 5671 5669 5668 5666 5665 5662 5661 5661 5660 5659 5655 5653 5650 5647 5643 5639 5635 5631 5628 5624 5622 5620 5617 5614 5612 5609 5606 5603 5600 5598 5596 5592 5590 5587 5583 5580 5578 5573
5660 5662 5667 5665 5664 5659 5660 5667 5665 5665 5664 5660 5661 5660 5660 5659 5657 5655 5653 5651 5648 5645 5643 5640 5636 5633 5630 5626 5623 5619 5617 5615 5614 5612 5609 5606 5604 5601 5598 5595 5593 5590 5587 5585 5581 5577 5573 5570 5568
5658 5664 5659 5655 5657 5666 5659 5667 5665 5663 5660 5657 5656 5656 5654 5651 5650 5647 5645 5641 5638 5635 5632 5630 5627 5624 5621 5618 5616 5614 5611 5611 5609 5606 5603 5601 5598 5595 5592 5589 5587 5584 5581 5579 5576 5571 5567 5562 5560
5659 5654 5652 5651 5653 5656 5656 5659 5672 5662 5657 5657 5655 5652 5649 5645 5643 5639 5635 5632 5629 5626 5623 5621 5618 5615 5612 5610 5607 5606 5605 5603 5601 5598 5596 5595 5592 5589 5585 5582 5579 5577 5574 5572 5568 5564 5559 5555 5551
5647 5647 5642 5643 5648 5651 5658 5656 5669 5664 5665 5661 5655 5649 5644 5639 5635 5631 5627 5625 5621 5618 5615 5613 5611 5607 5604 5601 5599 5597 5596 5594 5593 5591 5590 5587 5585 5582 5578 5574 5571 5568 5566 5563 5559 5554 5550 5546 5541
5645 5648 5647 5648 5649 5657 5647 5648 5668 5671 5668 5665 5656 5648 5641 5635 5631 5626 5621 5618 5614 5610 5607 5604 5603 5599 5596 5594 5591 5589 5586 5585 5583 5582 5580 5578 5577 5574 5571 5565 5562 5559 5556 5552 5547 5543 5539 5535 5530
5646 5648 5647 5645 5651 5654 5641 5649 5668 5660 5655 5654 5653 5646 5636 5630 5625 5619 5614 5610 5606 5602 5599 5597 5594 5591 5588 5585 5583 5581 5578 5575 5574 5571 5569 5567 5565 5563 5559 5555 5551 5547 5544 5539 5535 5531 5527 5522 5517
5640 5644 5645 5644 5635 5639 5654 5657 5661 5650 5646 5642 5641 5637 5630 5624 5617 5612 5607 5602 5598 5594 5591 5588 5585 5583 5579 5576 5574 5572 5569 5566 5563 5560 5558 5556 5553 5550 5546 5543 5539 5535 5531 5526 5521 5517 5513 5507 5501
5639 5641 5635 5635 5631 5636 5647 5650 5659 5650 5645 5638 5634 5631 5625 5618 5611 5605 5600 5594 5590 5586 5582 5579 5576 5573 5569 5567 5564 5560 5558 5555 5552 5550 5547 5544 5541 5537 5534 5530 5526 5522 5517 5511 5506 5501 5496 5490 5484
5627 5628 5633 5634 5631 5631 5636 5652 5656 5653 5646 5638 5633 5628 5621 5612 5605 5598 5592 5586 5581 5577 5574 5570 5567 5563 5560 5557 5554 5551 5548 5544 5541 5538 5535 5532 5528 5524 5520 5516 5511 5506 5501 5495 5490 5485 5478 5472 5466
5632 5635 5632 5628 5626 5623 5627 5643 5645 5642 5638 5633 5627 5619 5612 5604 5597 5590 5583 5578 5574 5569 5565 5561 5557 5553 5549 5546 5543 5540 5537 5533 5530 5527 5523 5519 5514 5510 5505 5500 5495 5490 5484 5477 5471 5466 5459 5453 5447